EW0771 Weather Reports


Display with metric or nautical units.
time (UTC)temp
F
wind
direction
speed
MPH
gust
MPH
rain 1hr
in
rain 24hr
in
rain mn
in
humidity
%
barometer
mb
20180816003658 76 81 0.0 0.0 0.00 0.00 0.00 85 1013.6
20180816002154 77 81 0.0 0.0 0.00 0.00 0.00 84 1013.4
20180816000654 77 81 0.0 0.0 0.00 0.00 0.00 82 1013.3
20180815235156 78 81 0.0 0.0 0.00 0.00 0.00 80 1013.1
20180815233653 79 81 0.0 0.0 0.00 0.00 0.00 78 1012.8
20180815232152 80 81 0.0 0.0 0.00 0.00 0.00 77 1012.8
20180815230652 81 81 0.0 0.0 0.00 0.00 0.00 76 1012.7
20180815225156 81 81 0.0 0.0 0.00 0.01 0.00 74 1012.7
20180815223656 81 81 0.0 0.0 0.00 0.01 0.00 73 1012.8
20180815222154 82 81 0.0 0.0 0.00 0.01 0.00 69 1012.8
20180815220651 82 81 0.0 2.0 0.00 0.01 0.00 68 1012.8
20180815215152 83 145 0.0 0.0 0.00 0.01 0.00 69 1012.7
20180815213650 83 121 0.0 5.0 0.00 0.01 0.00 67 1012.8
20180815212148 83 246 0.0 1.0 0.00 0.01 0.00 68 1012.9
20180815210652 84 96 0.0 3.0 0.00 0.01 0.00 66 1012.8
20180815205147 84 120 0.0 2.0 0.00 0.03 0.00 64 1012.8
20180815203649 85 43 0.0 4.0 0.00 0.03 0.00 64 1012.7
20180815202150 86 19 0.0 4.0 0.00 0.03 0.00 63 1012.7
20180815200652 86 99 0.0 1.0 0.00 0.03 0.00 63 1012.5
20180815195146 86 150 0.0 2.0 0.00 0.08 0.00 64 1012.6
20180815193647 87 162 0.0 3.0 0.00 0.08 0.00 61 1012.6
20180815192147 87 151 0.0 5.0 0.00 0.08 0.00 61 1012.7
20180815190644 87 5 0.0 7.0 0.00 0.08 0.00 59 1012.8
20180815185143 86 236 0.0 3.0 0.00 0.08 0.00 62 1012.9
20180815183646 86 19 1.0 5.0 0.00 0.08 0.00 63 1012.9
20180815182145 87 82 0.0 8.0 0.00 0.08 0.00 59 1013.1
20180815180641 87 309 1.0 6.0 0.00 0.08 0.00 61 1012.9
20180815175141 87 356 0.0 6.0 0.00 0.08 0.00 64 1012.9
20180815173640 87 6 1.0 8.0 0.00 0.08 0.00 61 1013.1
20180815172138 87 228 0.0 4.0 0.00 0.08 0.00 64 1013.1
20180815170639 86 22 0.0 2.0 0.00 0.08 0.00 64 1013.2
20180815165136 86 163 0.0 3.0 0.00 0.08 0.00 66 1013.2
20180815163639 86 39 0.0 4.0 0.00 0.08 0.00 66 1013.2
20180815162138 86 314 0.0 5.0 0.00 0.08 0.00 67 1013.3
20180815160635 85 115 0.0 4.0 0.00 0.08 0.00 69 1013.4
20180815155132 84 236 0.0 4.0 0.00 0.08 0.00 71 1013.2
20180815153632 84 36 0.0 2.0 0.00 0.08 0.00 68 1013.3
20180815152124 84 134 0.0 3.0 0.00 0.08 0.00 71 1013.3
20180815150623 83 71 0.0 5.0 0.00 0.08 0.00 71 1013.3
20180815145123 82 23 0.0 4.0 0.00 0.08 0.00 74 1013.3
20180815143621 80 30 0.0 6.0 0.00 0.08 0.00 78 1013.3
20180815142111 79 153 0.0 2.0 0.00 0.08 0.00 78 1013.3
20180815140610 78 19 0.0 3.0 0.00 0.08 0.00 80 1013.0
20180815135109 76 84 1.0 7.0 0.00 0.08 0.00 82 1012.9
20180815133606 76 108 0.0 4.0 0.00 0.08 0.00 83 1012.7
20180815132059 74 9 0.0 4.0 0.00 0.08 0.00 83 1012.7
20180815130557 73 33 0.0 1.0 0.00 0.08 0.00 83 1012.6
20180815125055 72 27 0.0 1.0 0.00 0.08 0.00 81 1012.7
20180815123548 71 20 0.0 1.0 0.00 0.08 0.00 78 1012.5
20180815122044 70 260 0.0 0.0 0.00 0.08 0.00 77 1012.4
20180815120541 69 49 0.0 0.0 0.00 0.08 0.00 76 1012.2
20180815115041 68 49 0.0 0.0 0.00 0.08 0.00 77 1012.2
20180815113540 68 49 0.0 0.0 0.00 0.08 0.00 77 1012.1
20180815112038 67 50 0.0 0.0 0.00 0.08 0.00 78 1012.0
20180815110538 67 50 0.0 0.0 0.00 0.08 0.00 78 1012.1
20180815105041 66 50 0.0 0.0 0.00 0.08 0.00 79 1012.0
20180815103537 66 50 0.0 0.0 0.00 0.08 0.00 80 1011.8
20180815102033 66 49 0.0 0.0 0.00 0.08 0.00 80 1011.5
20180815100535 66 50 0.0 0.0 0.00 0.08 0.00 80 1011.5
20180815095031 66 50 0.0 0.0 0.00 0.08 0.00 80 1011.3
20180815093534 67 50 0.0 0.0 0.00 0.08 0.00 81 1011.3
20180815092032 67 49 0.0 0.0 0.00 0.08 0.00 80 1011.1
20180815090529 67 50 0.0 0.0 0.00 0.08 0.00 80 1011.1
20180815085028 67 50 0.0 0.0 0.00 0.08 0.00 80 1010.9
20180815083532 67 50 0.0 0.0 0.00 0.08 0.00 80 1010.9
20180815082026 68 50 0.0 0.0 0.00 0.08 0.00 80 1010.9
20180815080526 68 49 0.0 0.0 0.00 0.08 0.00 80 1010.8
20180815075021 68 49 0.0 0.0 0.00 0.08 0.00 79 1010.9
20180815073525 69 50 0.0 0.0 0.00 0.08 0.00 79 1010.8
20180815072019 69 50 0.0 0.0 0.00 0.08 0.00 79 1010.8
20180815070518 69 49 0.0 1.0 0.00 0.08 0.00 79 1011.0
20180815065017 68 49 0.0 0.0 0.00 0.08 0.00 79 1010.9
20180815063522 69 50 0.0 0.0 0.00 0.08 0.00 79 1011.0
20180815062017 69 50 0.0 0.0 0.00 0.08 0.00 79 1011.0
20180815060520 69 50 0.0 0.0 0.00 0.08 0.00 79 1011.1
20180815055018 69 50 0.0 0.0 0.00 0.08 0.00 79 1011.1
20180815053512 69 49 0.0 0.0 0.00 0.08 0.00 79 1011.1
20180815052014 69 49 0.0 0.0 0.00 0.08 0.00 79 1011.2
20180815050510 69 50 0.0 0.0 0.00 0.08 0.00 80 1011.1
20180815045008 69 50 0.0 0.0 0.00 0.08 0.00 79 1011.1
20180815043506 69 50 0.0 0.0 0.00 0.08 0.00 80 1011.3
20180815042007 69 50 0.0 0.0 0.00 0.08 0.00 80 1011.4
20180815040503 69 49 0.0 0.0 0.00 0.08 0.00 80 1011.4
20180815035002 69 49 0.0 1.0 0.00 0.08 0.08 80 1011.3
20180815033502 70 50 0.0 0.0 0.00 0.08 0.08 80 1011.4
20180815031959 70 50 0.0 0.0 0.00 0.08 0.08 80 1011.4
20180815030500 70 50 0.0 0.0 0.00 0.08 0.08 80 1011.3
20180815024958 70 49 0.0 0.0 0.00 0.08 0.08 80 1011.1
20180815023456 70 50 0.0 0.0 0.00 0.08 0.08 80 1011.0
20180815021955 70 50 0.0 0.0 0.00 0.08 0.08 81 1011.0
20180815020456 70 50 0.0 0.0 0.00 0.08 0.08 81 1010.9
20180815014954 70 50 0.0 0.0 0.00 0.08 0.08 82 1011.0
20180815013457 70 50 0.0 0.0 0.00 0.08 0.08 82 1011.0
20180815011953 70 50 0.0 0.0 0.00 0.08 0.08 82 1010.8
20180815010455 70 50 0.0 0.0 0.00 0.08 0.08 83 1010.7
20180815004951 70 50 0.0 0.0 0.00 0.08 0.08 84 1010.5